Location: *
(40.7473°S, 106.8302°E)
Time: 23:03:47
(UTC+00:00)

Daily predictions for brighter satellites

Satellite Brightness Start Highest point End
(mag) Time Altitude Azimuth Time Altitude Azimuth Time Altitude Azimuth
DELTA 2 R/B (1) 4.4 12:04:35 10° NW 12:09:00 40° N 12:09:00 40° N
USA 281 4.4 12:11:07 10° S 12:17:13 40° WSW 12:23:17 10° WNW
Cosmos 1980 Rocket 2.4 12:16:16 10° SSW 12:21:28 68° WSW 12:21:28 68° WSW
Cosmos 2369 4.1 12:17:44 10° SSW 12:23:23 59° WNW 12:24:15 53° NW
Cosmos 2082 Rocket 3.0 12:20:47 10° NW 12:26:12 47° WSW 12:27:13 42° SSW
H-2A R/B 4.2 12:26:05 10° SSW 12:29:50 22° WSW 12:33:32 10° WNW
ARGOS 4.2 12:28:16 28° SSW 12:30:35 43° WSW 12:35:40 10° NW
CZ-4C R/B 4.0 20:18:37 41° ENE 20:19:06 42° ENE 20:26:03 10° SE
NOSS 3-1 (C) 4.4 20:33:17 68° E 20:33:17 68° E 20:40:33 10° SE
USA 267 3.8 20:36:51 10° SE 20:42:56 52° ENE 20:42:56 52° ENE
USA 281 4.0 20:39:42 10° NE 20:45:56 47° ESE 20:47:12 42° SSE
Milstar 3 Cent rocket 4.3 20:53:18 23° N 20:54:53 25° NNE 21:02:41 10° ENE
ATLAS CENTAUR R/B 3.3 21:01:53 63° ENE 21:01:53 63° ENE 21:10:26 10° NE
Cosmos 2366 rocket 4.3 21:00:42 10° N 21:06:56 67° E 21:13:18 10° SSE
ATLAS 5 CENTAUR R/B 4.3 21:12:55 15° S 21:14:35 17° SSE 21:17:55 10° ESE
USA 234 4.4 21:09:56 10° E 21:15:43 34° SSE 21:17:38 29° S
Cosmos 2082 Rocket 2.3 21:21:02 73° ENE 21:21:02 73° ENE 21:26:16 10° NNE
Cosmos 1943 Rocket 2.3 21:30:49 33° N 21:33:24 71° ENE 21:39:00 10° SSE
Cosmos 2278 Rocket 4.0 21:38:05 17° S 21:38:05 17° S 21:39:40 10° S
Cosmos 1340 Rocket 3.7 21:35:34 48° ENE 21:35:34 48° ENE 21:38:54 10° NNE
COSMOS 2406 4.1 21:47:52 33° NNW 21:47:52 33° NNW 21:51:23 10° N
USA 229 DEB 3.9 21:39:57 19° NNW 21:46:02 90° S 21:53:32 10° SE
NOAA 12 4.2 21:40:44 10° NNE 21:46:04 76° ESE 21:50:25 16° S
USA 229 3.9 21:39:54 18° NNW 21:46:06 89° ENE 21:53:36 10° SE
MOS 1-B Rocket 4.4 21:39:29 10° S 21:47:11 57° WSW 21:50:37 30° NW
SL-4 R/B 4.1 21:51:43 15° SSE 21:51:43 15° SSE 21:52:38 10° SE
Cosmos 2369 Rocket 3.7 21:45:13 10° N 21:50:18 36° ENE 21:55:28 10° SE
CZ-4C R/B 3.7 21:47:17 10° SSE 21:50:51 54° E 21:54:17 10° N
USA 276 4.4 21:53:38 19° SE 21:53:38 19° SE 21:55:07 10° ESE
Cosmos 2218 Rocket 4.1 21:46:37 10° NNW 21:52:52 55° W 21:59:16 10° S
FengYun 1-2 T 4.3 21:47:46 10° NNE 21:53:27 79° ESE 21:59:11 10° S
Meteor 2-3 Rocket 3.9 21:52:54 10° S 21:58:44 74° E 22:04:32 10° NNE
Cosmos 2151 4.1 21:55:01 10° S 21:59:10 44° ESE 22:03:15 10° NNE
ISS -3.1 22:00:26 55° ESE 22:00:26 55° ESE 22:03:13 10° SE
SL-08 R/B 3.2 21:59:13 10° SSE 22:04:04 85° WSW 22:08:45 10° NNW
ADEOS 3.5 21:59:04 10° NNE 22:04:19 83° WNW 22:09:09 13° SSW
X-37B 1.7 22:05:54 38° ESE 22:05:54 38° ESE 22:08:02 10° E
H-2A R/B 2.6 22:02:24 10° NNE 22:07:42 62° ESE 22:12:55 10° S
CZ-4C R/B 3.1 22:03:55 30° WNW 22:07:46 52° SW 22:14:41 10° SSE
Cosmos 1140 Rocket 4.3 22:03:52 10° N 22:08:54 52° ENE 22:13:58 10° SSE
Tiangong 3.2 22:10:47 19° N 22:10:47 19° N 22:12:26 10° NNE
CZ-2D R/B 4.2 22:07:37 10° NNE 22:11:18 47° ESE 22:15:02 10° S
Cosmos 1727 Rocket 3.9 22:05:19 10° SSW 22:11:33 70° W 22:17:43 10° N
NOSS 3-1 (A) 4.3 22:07:57 19° WNW 22:14:30 56° SW 22:22:14 10° SSE
Cosmos 1932 4.4 22:11:22 22° SSW 22:15:43 88° ESE 22:21:55 10° NNE
Cosmos 1821 Rocket 3.9 22:11:27 10° NNW 22:17:47 74° W 22:24:06 10° S
ATLAS 3B R/B 4.4 22:17:48 14° SSW 22:18:30 14° SSW 22:22:09 10° S
Cosmos 1076 Rocket 3.3 22:16:27 16° SSW 22:19:56 76° W 22:24:11 10° N
SMAP 3.0 22:18:24 10° NNE 22:23:05 90° WSW 22:27:50 10° SSW
Cosmos-2242 3.8 22:19:15 10° N 22:23:26 54° E 22:27:40 10° SSE
USA 267 3.5 22:19:53 10° SE 22:26:13 50° SSW 22:30:18 22° W
USA 281 3.8 22:24:38 10° NNW 22:30:30 34° WNW 22:34:04 21° SW
Cosmos 1939 Rocket 3.6 22:31:45 10° NNW 22:35:23 31° W 22:35:57 30° W
Cosmos 2251 Rocket 3.7 22:31:42 10° NW 22:36:56 52° WSW 22:42:15 10° S
CENTAUR R/B 4.5 22:34:05 10° S 22:37:00 14° SSE 22:39:44 10° ESE
Cosmos 1869 3.5 22:34:05 10° NNW 22:37:47 43° WSW 22:41:33 10° S
CZ-2C R/B 2.5 22:35:59 10° S 22:41:21 72° WSW 22:46:34 10° NNW
BREEZE M DEB (TANK) 3.9 22:36:10 17° WSW 22:44:16 55° SSE 22:48:03 10° E
CZ-4B R/B 3.1 22:42:39 10° N 22:46:18 40° W 22:49:08 15° SSW
NOAA 6 4.0 22:43:18 10° N 22:48:29 69° WNW 22:53:43 10° SSW
CORIOLIS 4.2 22:43:42 10° N 22:49:00 61° WNW 22:54:24 10° SSW
Spot 1 4.3 22:45:10 10° S 22:49:53 79° WSW 22:54:49 10° NNW
Meteor PRIRODA 4.5 22:47:31 10° NNW 22:50:44 29° W 22:52:38 18° SW
Cosmos 1190 Rocket 4.2 22:45:42 10° NNW 22:51:01 81° ENE 22:56:24 10° SSE
AQUARIUS 4.4 22:49:45 10° N 22:54:08 50° W 22:58:35 10° SSW
COSMO-SKYMED 1 2.9 22:51:19 10° SSE 22:55:45 70° ENE 23:00:05 10° N
USA 234 3.3 22:51:39 10° NE 22:58:13 90° N 23:04:52 10° SW
Okean O Rocket 3.4 22:54:23 10° NE 22:58:23 32° ESE 23:02:25 10° S
ATLAS 5 CENTAUR R/B 2.0 22:54:50 10° SSW 23:00:25 77° SE 23:04:56 10° NE
CZ-4B DEB 4.2 22:57:38 10° NNE 23:03:13 82° WNW 23:08:52 10° SSW
Cosmos 1934 Rocket 3.9 22:57:19 10° NNW 23:03:18 63° W 23:09:27 10° S
Cosmos 1862 3.3 22:59:39 10° S 23:03:45 85° W 23:07:49 10° N
Cosmos 2082 Rocket 3.8 23:02:58 13° W 23:03:52 14° W 23:06:32 10° NW
Cosmos 2263 4.2 22:58:24 10° NNW 23:04:12 78° WSW 23:10:04 10° SSE
Cosmos 2123 Rocket 4.0 23:02:03 10° SSW 23:08:20 65° W 23:14:28 10° N
Cosmos 676 Rocket 4.4 23:03:42 10° N 23:08:59 70° ENE 23:14:17 10° SSE
YAOGAN 1 4.3 23:05:15 10° NE 23:09:10 33° ESE 23:13:07 10° S
PAYLOAD B 4.3 23:08:59 10° NNE 23:14:36 86° WNW 23:20:19 10° SSW
Cosmos 2221 3.7 23:12:52 10° NNE 23:17:02 49° E 23:21:17 10° SSE
Cosmos 1606 2.8 23:13:35 10° NNW 23:17:20 56° W 23:21:12 10° S
Cosmos 1943 Rocket 3.5 23:13:51 10° W 23:17:43 19° SW 23:21:34 10° S
SL-08 RB Rocket 3.7 23:13:12 10° N 23:17:52 74° WNW 23:22:33 10° SSW
Gbstr 26 Del rocket 4.4 23:23:12 10° SW 23:26:57 31° SSE 23:31:17 10° E
USA 276 2.1 23:25:21 10° WSW 23:28:19 63° NW 23:31:17 10° NE
CZ-4 R/B 4.5 23:24:42 10° N 23:28:51 69° WNW 23:33:04 10° SSW
SL-4 R/B 3.8 23:28:08 10° SW 23:30:13 15° S 23:32:23 10° SE
Cosmos 407 Rocket 4.3 23:29:18 10° WNW 23:33:46 29° WSW 23:38:15 10° S
Cosmos 2369 Rocket 2.9 23:29:13 10° WNW 23:34:18 33° WSW 23:39:29 10° S
